Meteo Giornale » Osservazioni meteo Repubblica Ceca » Praha-Ruzyne

ore: 03:30 - Osservazioni Meteo Praha-Ruzyne
Lat. 50° 6' N Lon. 14° 15' E Alt. 365 metri s.l.m.

nebbia Europe/Prague

-1 °C

Nebbia Congelantesi

Temp. 24 Ore

-2 °C

-1 °C

Nord

3.7 Km/h

Dew point -1 °C

Umidità 100 %

Visibilità  0.8 Km

Il sole sorge alle ore 07:33

Il sole tramonta alle ore 16:08

Data e Ora Cielo e Fenomeni T °C DP °C Um. % Pres. hPa Vis. km Vento km/h
Oggi h: 03:30 nebbia Nebbia Congelantesi -1 -1 100 1022 0.8 N 3.7
Oggi h: 03:20 nebbia Nebbia Congelantesi -1 -1 100 1022 0.8 SO 7.4
Oggi h: 03:00 nebbia Nebbia Congelantesi -1 -1 100 1022 0.6 S/SO 7.4
Oggi h: 02:30 nebbia Nebbia Congelantesi -1 -1 100 1022 0.5 N 3.7
Oggi h: 02:00 nebbia Nebbia Congelantesi -1 -1 100 1022 0.6 N 3.7
Oggi h: 01:30 nebbia Nebbia Congelantesi -1 -1 100 1022 0.7 S/SO 7.4
Oggi h: 01:00 nebbia Nebbia Congelantesi -1 -1 100 1022 0.7 SO 7.4
Oggi h: 00:00 nebbia Nebbia Congelantesi -1 -1 100 1022 0.6 S 7.4
Ieri h: 23:30 nebbia Nebbia Congelantesi -1 -1 100 1022 0.6 S/SO 9.3
Ieri h: 23:00 nebbia Nebbia Congelantesi -1 -1 100 1023 0.6 S 7.4
Ieri h: 21:30 nebbia Nebbia Congelantesi -1 -1 100 1023 0.9 SO 7.4
Ieri h: 21:00 foschia Foschia -1 -1 100 1023 1 SO 7.4
Ieri h: 20:42 foschia Foschia -1 -1 100 1023 2 SO 7.4
Ieri h: 20:30 foschia Foschia -1 -1 100 1023 3 SO 7.4
Ieri h: 20:00 foschia Foschia -1 -1 100 1023 3 SO 7.4
Ieri h: 19:44 foschia Foschia -1 -1 100 1023 3 O/SO 9.3
Ieri h: 19:30 foschia Foschia -1 -1 100 1023 4 S/SO 7.4
Ieri h: 19:00 foschia Foschia -1 -1 100 1023 4 SO 9.3
Ieri h: 18:30 foschia Foschia -1 -1 100 1023 4 N 5.5
Ieri h: 18:00 foschia Foschia -1 -1 100 1023 4 N 3.7
Ieri h: 17:00 foschia Foschia -1 -1 100 1023 5 O/NO 7.4
Ieri h: 16:00 foschia Foschia -1 -1 100 1023 5 N 5.5
Ieri h: 15:30 foschia Foschia -1 -1 100 1022 5 N 3.7
Ieri h: 15:00 foschia Foschia -1 -1 100 1023 4 N 5.5
Ieri h: 14:47 foschia Foschia -1 -1 100 1023 5 S/SO 7.4
Ieri h: 14:30 foschia Foschia -1 -2 92 1023 5 N 5.5
Ieri h: 14:00 foschia Foschia -1 -2 92 1023 5 N 5.5
Ieri h: 13:30 foschia Foschia -1 -2 92 1023 5 SO 7.4
Ieri h: 13:00 foschia Foschia -1 -2 92 1023 5 SO 7.4
Ieri h: 12:30 foschia Foschia -1 -2 92 1023 5 S/SO 9.3
Ieri h: 12:00 foschia Foschia -1 -2 92 1023 5 S 7.4
Ieri h: 11:30 foschia Foschia -1 -2 92 1023 5 N 5.5
Ieri h: 11:00 foschia Foschia -1 -2 92 1023 5 S 7.4
Ieri h: 10:30 foschia Foschia -2 -2 100 1024 5 S 7.4
Ieri h: 10:00 foschia Foschia -2 -2 100 1024 5 S/SO 7.4
Ieri h: 09:30 foschia Foschia -2 -2 100 1024 5 S 9.3
Ieri h: 09:19 foschia Foschia -2 -2 100 1024 5 S 9.3
Ieri h: 09:00 foschia Foschia -2 -3 92 1024 5 S 7.4
Ieri h: 08:30 foschia Foschia -2 -3 92 1024 5 S 7.4
Ieri h: 08:00 foschia Foschia -2 -3 92 1024 5 O/SO 11.1
Ieri h: 07:30 foschia Foschia -2 -3 92 1023 5 SO 11.1
Ieri h: 07:00 coperto Coperto -2 -3 92 1023 8 S/SO 9.3
Ieri h: 06:30 coperto Coperto -2 -3 92 1023 8 S 9.3
Ieri h: 06:00 coperto Coperto -2 -2 100 1023 8 S/SO 9.3
Ieri h: 05:00 coperto Coperto -2 -2 100 1023 8 SO 11.1
Ieri h: 04:00 coperto Coperto -2 -2 100 1023 8 S 7.4
Ieri h: 03:45 coperto Coperto -2 -2 100 1023 8 S 11.1